www.pogodaiklimat.ru

Погода и климат >> Архив погоды >> Узбекистан >> Сырдарья


АРХИВ ПОГОДЫ в Сырдарье

Время (UTC), дата Ветер
(напр.,м/с)
 
Видим.   Явления Облачность Т
(С)
Тd
(С)
f
(%)
Тe
(С)
Тes
(С)
Комфортность P
(гПа)
Po
(гПа)
Тmin
(С)
Tmax
(С)
R
(мм)
R24
(мм)
S
(см)
00 15.09 штиль 0 10 км 4/3 600 м
[Cu hum Ac lent Ci fib]
+15.5 +11.7 78 +15 +15 1015.2 984.1
03 15.09 В 1 10 км 10/5 600 м
[Cb cap Ac lent Ci fib]
+17.7 +13.1 74 +19 +19 1015.5 984.7
06 15.09 З 2 10 км 8/4 600 м
[Cb cap Ac lent Ci fib]
+23.5 +14.6 57 +26 +31 жарко 1016.4 986.2 +14.4
09 15.09 З 4 10 км 4/3 600 м
[Cu hum Ac lent Ci fib]
+28.1 +9.4 31 +28 +33 жарко 1015.8 986.1
12 15.09 З 4 10 км 6/5 600 м
[Cb cap Ac lent Ci fib]
+26.9 +4.5 24 +26 +26 жарко 1016.5 986.5
15 15.09 С 1 10 км 8/4 600 м
[Cb cap Ac lent Ci fib]
+21.9 +8.8 43 +23 +23 комфорт 1018.5 988.0 +29.0
18 15.09 СВ 1 10 км 4/3 600 м
[Cu hum Ac lent Ci fib]
+17.1 +10.5 65 +18 +18 1019.0 988.1 +29.0
21 15.09 С 1 10 км 3/0
[Ci fib]
+14.5 +10.0 74 +15 +15 1019.0 987.8
00 16.09 В 1 10 км ясно +12.3 +10.5 89 +12 +12 1019.8 988.4
03 16.09 ЮВ 2 10 км ясно +13.9 +9.4 74 +13 +16 1020.4 989.1
06 16.09 штиль 0 10 км ясно +24.3 +9.9 40 +25 +41 комфорт 1019.2 989.0 +11.7
09 16.09 СЗ 1 10 км 4/3 600 м
[Cu med, cong Ac lent Ci fib]
+27.7 +6.2 26 +27 +35 жарко 1018.1 988.2
12 16.09 С 2 10 км 8/4 600 м
[Cu med, cong Ac lent Ci fib]
+26.5 +7.4 30 +26 +27 жарко 1018.0 988.0
15 16.09 штиль 0 10 км 3/0
[Ci fib]
+18.9 +10.7 59 +20 +20 1019.0 988.2 +29.4
18 16.09 СВ 1 10 км ясно +15.9 +9.5 66 +17 +17 1019.8 988.7 +29.4
21 16.09 Ю 1 10 км ясно +13.5 +9.4 76 +14 +14 1019.9 988.6
00 17.09 В 1 10 км ясно +11.7 +9.2 85 +12 +12 1020.2 988.7 +0.9
03 17.09 В 1 10 км ясно +14.3 +9.4 72 +15 +17 1031.4 990.1
06 17.09 В 1 10 км ясно +24.6 +10.9 42 +26 +39 жарко 1020.1 989.8 +10.0
09 17.09 С 3 10 км ясно +27.7 +7.7 28 +27 +36 жарко 1018.7 988.8
12 17.09 С 2 10 км ясно +24.8 +6.4 31 +25 +26 комфорт 1017.5 987.6
15 17.09 С 1 10 км ясно +19.2 +9.2 52 +21 +21 комфорт 1017.4 986.7 +28.5
18 17.09 СВ 1 10 км ясно +16.5 +9.2 62 +17 +17 1016.6 985.7 +28.5
21 17.09 штиль 0 10 км ясно +13.2 +9.0 76 1016.5
00 18.09 штиль 0 10 км ясно +11.5 +8.9 84 +11 +11 1016.5 985.0 +0.9
03 18.09 В 2 10 км ясно +16.2 +9.5 64 +16 +18 1015.7 984.8
06 18.09 СЗ 1 10 км ясно +26.7 +9.8 35 +27 +40 жарко 1013.0 983.2 +10.6 123
09 18.09 ЮВ 1 10 км ясно +30.9 +9.8 27 +30 +43 жарко 1011.5 982.1
12 18.09 В 2 10 км 3/0
[Ci fib]
+31.6 +10.9 28 +32 +33 жарко 1010.8 981.5
15 18.09 В 1 10 км 4/0
[Ac lent Ci fib]
+22.7 +14.0 58 +26 +26 жарко 1012.3 982.2 +32.7
18 18.09 ЮВ 1 10 км 3/0
[Ci fib]
+18.3 +12.9 71 +20 +20 1014.4 983.7 +32.7
21 18.09 В 2 10 км 3/0
[Ci fib]
+16.1 +11.9 76 +16 +16 1014.8 983.9
00 19.09 В 1 10 км 6/3 600 м
[Cu med, cong Ac lent Ci fib]
+15.7 +11.0 74 +16 +16 1015.0 984.0
03 19.09 В 1 10 км 5/5 600 м
[Cb calv]
+19.3 +10.4 56 +21 +23 комфорт 1015.4 984.8
06 19.09 ЮВ 2 10 км 3/0
[Ac lent]
+23.7 +15.9 62 +27 +35 жарко 1015.5 985.4 +14.4
09 19.09 ЮЗ 2 10 км ясно +34.1 +8.1 20 +32 +43 жарко 1013.7 984.5
12 19.09 Ю 1 10 км ясно +34.2 +11.3 25 +34 +36 очень
жарко
1013.1 984.0
15 19.09 штиль 0 10 км ясно +24.1 +16.6 63 +28 +28 душно 1014.4 984.3 +35.4
18 19.09 С 1 10 км ясно +20.1 +13.8 67 +23 +23 комфорт 1015.0 984.5 +35.4
21 19.09 В 1 10 км ясно +17.5 +13.4 77 +19 +19 1014.5 983.7
00 20.09 В 1 10 км ясно +16.1 +12.3 78 +17 +17 1015.0 984.1
03 20.09 В 1 10 км ясно +16.3 +12.9 80 +17 +19 1015.3 984.4
06 20.09 Ю 1 10 км ясно +28.2 +14.9 44 +31 +43 душно 1014.3 984.6 +15.4
09 20.09 С 1 10 км ясно +33.2 +13.2 30 +34 +46 очень
жарко
1012.3 983.2
12 20.09 штиль 0 10 км ясно +33.8 +15.1 33 +36 +38 очень
душно
1011.0 982.0
15 20.09 ЮЗ 2 10 км ясно +24.7 +14.3 52 +27 +27 жарко 1012.0 982.1 +34.8
18 20.09 С 2 10 км ясно +22.6 +9.5 43 +24 +24 комфорт 1012.3 982.1 +34.8
21 20.09 штиль 0 10 км ясно +16.5 +13.8 84 +16 +16 1011.9 981.1
00 21.09 штиль 0 10 км ясно +14.2 +11.0 81 +14 +14 1011.9 980.9 +1.2
03 21.09 ЮВ 1 10 км ясно +16.9 +12.4 75 +18 +20 1012.3 981.5
06 21.09 Ю 2 10 км ясно +29.0 +12.7 37 +30 +41 жарко 1010.2 980.7 +13.2
09 21.09 ЮЗ 2 10 км ясно +33.5 +13.6 30 +34 +45 очень
жарко
1008.1 979.1
12 21.09 СВ 2 10 км ясно +33.3 +16.4 36 +36 +37 очень
душно
1007.1 978.2
15 21.09 В 1 10 км ясно +24.8 +16.7 61 +28 +28 жарко 1007.6 977.8 +35.4
18 21.09 В 1 10 км ясно +21.1 +15.8 72 +24 +24 комфорт 1007.5 977.4 +35.4

 

Местоположение метеостанции Сырдарья (Сырдарьинская область, Узбекистан): широта 40.82 долгота 68.68 высота над уровнем моря 264 м.

В архиве по умолчанию представлена погода в Сырдарье за последнюю неделю. Архивные данные за месяц целиком и за предыдущие месяцы, начиная с января 2011 года, Вы можете получить, выбрав интересующий диапазон дат из раскрывающегося списка и нажав кнопку "Ввод!".


*Определитесь, кто Вы:
робот инопланетянин человек

Внимание! Время в таблицах - всемирное. Для получения местного времени необходимо прибавить поправку, которая равна 5 ч.

Смотрите также архив погоды в соседних городах и на ближайших метеорологических станциях:

Погода в Жетысае (Южно-Казахстанская область, Казахстан) (30 км)
Погода в Каунчи (Ташкентская область, Узбекистан) (39 км)
Погода в Дустлике (Джизакская область, Узбекистан) (55 км)
Погода в Туябугузе (Ташкентская область, Узбекистан) (60 км)
Погода в Янгиере (Сырдарьинская область, Узбекистан) (68 км)
Погода в Ташкенте (Ташкентская область, Узбекистан) (70 км)
Погода в Шардаре (Южно-Казахстанская область, Казахстан) (84 км)
Погода в Западном Арнасае (Джизакская область, Узбекистан) (85 км)
Погода в Бекабаде (Ташкентская область, Узбекистан) (85 км)
Погода в Галляарале (Джизакская область, Узбекистан) (96 км)

Пояснения к столбцам:

Ветер - указаны скорость ветра в м/с - средняя за 10 мин, порывы в срок и между сроками (в фигурных скобках) и направление, откуда дует ветер: С - северный, СВ - северо-восточный, В - восточный, ЮВ - юго-восточный, Ю - южный, ЮЗ - юго-западный, З - западный, СЗ - северо-западный.
Видимость - горизонтальная дальность видимости в метрах или километрах. При видимости от 1 до 10 км при отсутствии осадков обычно наблюдается дымка, при ухудшении видимости до 1 км и менее - туман. В сухую погоду видимость может ухудшаться дымом, пылью или мглою.
Явления - указаны атмосферные явления, наблюдавшиеся в срок или в последний час перед сроком; фигурными скобками обозначены явления, наблюдавшиеся между сроками (за 1-3 часа до срока); квадратными скобками обозначены град или гололедные отложения с указанием их диаметра в мм.
Облачность - указаны через наклонную черту общая и нижняя облачность в баллах и высота нижней границы облаков в метрах; квадратными скобками обозначены формы облаков: Ci - перистые, Cs - перисто-слоистые, Cc - перисто-кучевые, Ac - высококучевые, As - высокослоистые, Sc - слоисто-кучевые, Ns - слоисто-дождевые, Cu - кучевые, Cb - кучево-дождевые. Подробнее классификацию облаков см. в Атласе облаков (PDF).
T - Температура воздуха - температура, измеренная на высоте 2 м над землей.
Td - Температура точки росы - температура, при понижении до которой содержащийся в воздухе водяной пар достигнет насыщения.
f - Относительная влажность воздуха - влажноcть воздуха, измеренная на высоте 2 м над землей.
Te - Эффективная температура - температура, которую ощущает одетый по сезону человек в тени. Характеристика душности погоды. При расчете учитывается влияние влажности воздуха и скорости ветра на теплоощущения человека.
Tes - Эффективная температура на солнце - температура, которую ощущает человек, с поправкой на солнечный нагрев. Характеристика знойности погоды. Зависит от высоты солнца над горизонтом, облачности и скорости ветра. Ночью, в пасмурную погоду, а также при ветре 12 м/с и более поправка равна нулю.
P - Атмосферное давление - приведенное к уровню моря атмосферное давление.
Po - Атмосферное давление - измеренное на уровне метеостанции атмосферное давление.
Tmin - Минимальная температура - минимум температуры воздуха на высоте 2 м над землей.
Tmax - Максимальная температура - максимум температуры воздуха на высоте 2 м над землей.
R - Количество осадков - Количество выпавших осадков за период времени, мм. При наведении курсора мыши на число - период времени, за который выпало указанное количество осадков.
R24 - Количество осадков - Количество выпавших осадков за 24 часа, мм.
S - Снежный покров - Высота снежного покрова, см. При наведении курсора мыши на число - состояние снежного покрова и степень покрытия местности в баллах.